Home > Weather > San Salvador > Past weeks

Flag for El Salvador Weather for the Past 2 Weeks in San Salvador, El Salvador

Now
93 °F

Sunny.


Feels Like: 93 °F
Forecast: 62 / 78 °F
Wind: 22 mph from Northeast

Location: El Salvador Intl. Airport / Comalapa

Current Time: Feb 7, 2016 at 12:08:45 PM

Latest Report: Feb 7, 2016 at 10:50 AM


Visibility: 10 mi

Pressure: 29.86 "Hg (27.72 "Hg at 667m altitude)

Humidity: 32%

Dew point: 59 °F

Location of San SalvadorLocation

Historic Weather in San Salvador — Graph

°F

San Salvador Temperature Yesterday

Maximum temperature yesterday: 95 °F (at 1:50 PM)
Minimum temperature yesterday: 75 °F (at 2:50 AM)
Average temperature yesterday: 84 °F

High & Low Weather Summary for the Past Weeks

 TemperatureHumidityPressure
High95 °F (Jan 30, 12:50 PM)100% (Jan 28, 5:50 AM)32.52 "Hg (Jan 28, 5:50 AM)
Low68 °F (Jan 26, 3:50 AM)31% (Jan 24, 12:50 PM)29.77 "Hg (Jan 27, 3:50 PM)
Average81 °F61%29.88 "Hg
* Reported Jan 23 10:50 AM — Feb 7 10:50 AM, San Salvador, Weather by CustomWeather, © 2016

Note: Actual official high and low records may vary slightly from our data, if they occured in-between our weather recording intervals... More about our weather records

Advertising

San Salvador Weather History for the Previous 24 Hours

 ConditionsComfort  
Time TempWeatherWind HumidityBarometerVisibility
10:50 AM
Sun, Feb 7
93 °FSunny.22 mph32%29.86 "Hg10 mi
9:50 AM88 °FPassing clouds.17 mph38%29.89 "HgN/A
8:50 AM86 °FSunny.16 mph40%29.89 "Hg10 mi
7:50 AM81 °FPassing clouds.10 mph51%29.89 "HgN/A
6:50 AM79 °FPassing clouds.9 mph54%29.89 "HgN/A
5:50 AM77 °FClear.7 mph54%29.86 "Hg10 mi
4:50 AM75 °FClear.7 mph61%29.86 "Hg10 mi
3:50 AM77 °FPassing clouds.7 mph57%29.86 "HgN/A
2:50 AM79 °FPassing clouds.10 mph54%29.86 "HgN/A
1:50 AM79 °FPassing clouds.9 mph54%29.89 "HgN/A
12:50 AM79 °FClear.10 mph65%29.89 "Hg10 mi
11:50 PM
Sat, Feb 6
79 °FPassing clouds.5 mph54%29.89 "HgN/A
10:50 PM81 °FPassing clouds.12 mph51%29.92 "HgN/A
9:50 PM82 °FPassing clouds.12 mph48%29.92 "HgN/A
8:50 PM82 °FPassing clouds.10 mph45%29.92 "HgN/A
7:50 PM84 °FClear.12 mph43%29.89 "Hg10 mi
6:50 PM86 °FPassing clouds.9 mph43%29.86 "HgN/A
5:50 PM88 °FSunny.12 mph40%29.86 "Hg10 mi
4:50 PM88 °FWarm.5 mph55%29.83 "HgN/A
3:50 PM90 °FSunny.7 mph52%29.80 "Hg10 mi
2:50 PM95 °FPassing clouds.14 mph34%29.80 "HgN/A
1:50 PM95 °FPassing clouds.16 mph32%29.83 "HgN/A
12:50 PM91 °FPassing clouds.16 mph36%29.86 "HgN/A
Weather by CustomWeather, © 2016

See weather overviewHow to use our weather pages